{"data":{"norad_id":68856,"epoch":"2026-09-19T06:50:08.866176Z","epoch_age_seconds":120498,"freshness":"FRESH","line1":"1 68856U 26094T   26262.28482484  .00017731  00000+0  55026-3 0  9991","line2":"2 68856  97.2867 275.4589 0001045  99.4541 260.6820 15.33445367 22476","mean_motion":15.33445367,"eccentricity":0.0001045,"inclination_deg":97.2867,"raan_deg":275.4589,"arg_perigee_deg":99.4541,"mean_anomaly_deg":260.682,"bstar":0.00055026,"rev_number":2247,"period_min":93.906182182231,"perigee_km":464.82691808043,"apogee_km":466.25724700868,"semimajor_km":6843.6790825446,"source":"CELESTRAK","updated_at":"2026-09-20T09:00:44.043823Z"}}